Regional Weather Roundup
Issued by NWS Cleveland, OH

Home | Current Version | Previous Version | Graphics & Text | Print | Product List | Glossary On
Versions: 1 2 3 4 5 6 7 8 9 10 11 12 13 14 15 16 17 18 19 20 21 22 23 24 25 26 27 28 29 30 31 32 33 34 35 36 37 38 39 40 41 42 43 44 45 46 47 48 49 50
000
ASUS41 KCLE 261300
RWRCLE
OHIO REGIONAL WEATHER ROUNDUP
NATIONAL WEATHER SERVICE WILMINGTON, OH
800 AM EST WED NOV 26 2014

NOTE: "FAIR" INDICATES FEW OR NO CLOUDS BELOW 12,000 FEET WITH NO
SIGNIFICANT WEATHER AND/OR OBSTRUCTIONS TO VISIBILITY.

OHZ001>008-015>018-024>027-034-035-043-044-261400-
   NORTHWEST OHIO

CITY           SKY/WX    TMP DP  RH WIND       PRES   REMARKS
DEFIANCE       NOT AVBL
FINDLAY        CLOUDY    30  21  69 NE9       30.14S WCI  22
TOLEDO EXPRESS CLOUDY    28  21  75 N3        30.16S
TOLEDO METCALF CLOUDY    29  21  72 N3        30.18S
LIMA           CLOUDY    29  21  72 E7        30.13S WCI  22
$$

OHZ009>014-019>023-028>033-038-089-261400-
   NORTHEAST OHIO

CITY           SKY/WX    TMP DP  RH WIND       PRES   REMARKS
CLE-HOPKINS    CLOUDY    33  24  69 E8        30.17R WCI  26
CLE-LAKEFRONT  CLOUDY    34  24  67 E7        30.15R WCI  28
CUY CO. ARPT   CLOUDY    34  28  80 E6        30.15F WCI  29
LORAIN-ELYRIA  CLOUDY    31  26  82 CALM      30.15R
ASHTABULA      CLOUDY    32  26  78 CALM      30.17R
AKRON-CANTON   CLOUDY    31  24  75 NE8       30.11S WCI  23
WOOSTER        CLOUDY    30  24  78 N8        30.12R WCI  22
MANSFIELD      CLOUDY    29  23  78 NE6       30.11S WCI  23
YOUNGSTOWN     CLOUDY    31  25  78 NE6       30.12R WCI  25
$$

OHZ042-051>053-060>062-070>072-077>081-261400-
  SOUTHWEST OHIO

CITY           SKY/WX    TMP DP  RH WIND       PRES   REMARKS
CINC-COVINGTON MOCLDY    27  22  81 N5        30.12R WCI  22
CINC-LUNKEN    MOCLDY    26  23  88 CALM      30.16R
HAMILTON       CLOUDY    31  26  82 N3        30.15R
DAYTON         NOT AVBL
WRIGHT-PAT AFB NOT AVBL
DAYTON GENERAL CLOUDY    29  25  85 N6        30.11R WCI  23
WILMINGTON     CLOUDY    27  23  85 N10       30.11R WCI  17
$$

OHZ036-037-039>041-045>050-054>059-063>069-073>076-082>088-261400-
  CENTRAL AND SOUTHEAST OHIO

CITY           SKY/WX    TMP DP  RH WIND       PRES   REMARKS
COLUMBUS       CLOUDY    29  24  82 N7        30.10F WCI  22
OSU AIRPORT    CLOUDY    29  25  85 N8        30.11S WCI  21
BOLTON FIELD   CLOUDY    28  27  93 N10       30.10R WCI  19
RICKENBACK AFB NOT AVBL
NEWARK         CLOUDY    31  25  78 N5        30.09F WCI  26
MARION         CLOUDY    29  22  75 NE8       30.12S WCI  21
LANCASTER      CLOUDY    30  26  85 N3        30.10R
ZANESVILLE     CLOUDY    31  26  82 N6        30.06F WCI  25
NEW PHILLY     CLOUDY    32  26  78 N5        30.11R WCI  27
$$


USA.gov is the U.S. government's official web portal to all federal, state and local government web resources and services.